Regional Weather Roundup
Issued by NWS Charleston, WV

Home | Current Version | Previous Version | Text Only | Print | Product List | Glossary Off
Versions: 1 2 3 4 5 6 7 8 9 10 11 12 13 14 15 16 17 18 19 20 21 22 23 24 25 26 27 28

000
ASUS41 KRLX 282110
RWRRLX
West Virginia Regional Weather Roundup
National Weather Service Charleston WV
500 PM EDT SAT MAY 28 2016

Note: "fair" indicates few or no clouds below 12,000 feet with no
significant weather and/or obstructions to visibility.

WVZ003-282200-
Northern Panhandle of West Virginia

CITY           SKY/WX    TMP DP  RH WIND       PRES   REMARKS
WHEELING         N/A     83  64  52 S6        30.08F
$$

WVZ009-282200-
Northwest West Virginia

CITY           SKY/WX    TMP DP  RH WIND       PRES   REMARKS
PARKERSBURG      N/A     84  65  52 S6        30.10F
$$

WVZ006-282200-
Western West Virginia

CITY           SKY/WX    TMP DP  RH WIND       PRES   REMARKS
HUNTINGTON       N/A     86  63  45 S6        30.08F
$$

WVZ015-282200-
West Central West Virginia

CITY           SKY/WX    TMP DP  RH WIND       PRES   REMARKS
CHARLESTON       N/A     86  63  45 W3        30.09F
$$

WVZ022-031-282200-
North Central West Virginia

CITY           SKY/WX    TMP DP  RH WIND       PRES   REMARKS
CLARKSBURG     PTSUNNY   86  63  45 CALM      30.09F
MORGANTOWN       N/A     88  61  40 SW6       30.10S
$$

WVZ025-035-042-045-282200-
Southern West Virginia

CITY           SKY/WX    TMP DP  RH WIND       PRES   REMARKS
BECKLEY          N/A     81  49  32 S10       30.18F
LOGAN            N/A     82  59  44 CALM      30.13S
BLUEFIELD        N/A     78  50  37 SE9       30.21F
LEWISBURG        N/A     80  56  43 SE6       30.19S
$$

WVZ047-282200-
Northern Mountains of West Virginia

CITY           SKY/WX    TMP DP  RH WIND       PRES   REMARKS
ELKINS           N/A     85  62  46 N3        30.13F
$$

WVZ052-282200-
Eastern Panhandle of West Virginia

CITY           SKY/WX    TMP DP  RH WIND       PRES   REMARKS
MARTINSBURG      N/A     88  66  48 S8        30.08F
PETERSBURG       N/A     87  65  47 SE8       30.09S
$$




USA.gov is the U.S. government's official web portal to all federal, state and local government web resources and services.